Flag for Philippines Weather past 2 weeks in Olongapo, Philippines

Now
90 °F

Passing clouds.


Feels Like: 90 °F
Forecast: 68 / 93 °F
Wind: 12 mph from East

Location: Subic Bay Weather Station

Current Time: Mar 3, 2015 at 1:23:37 PM

Latest Report: Mar 3, 2015 at 1:00 PM


Visibility: N/A

Pressure: 29.83 "Hg

Humidity: 38%

Dew point: 61 °F

Location of OlongapoLocation

Historic Weather in Olongapo — Graph

°F

Olongapo temperature yesterday

Maximum temperature yesterday: 91 °F (at 2:00 PM)
Minimum temperature yesterday: 72 °F (at 2:00 AM)
Average temperature yesterday: 80 °F

Past Weeks' High & Low Weather Summary

 TemperatureHumidityPressure
High91 °F (Feb 16, 2:00 PM)100% (Feb 27, 7:00 AM)30.01 "Hg (Feb 27, 7:00 AM)
Low68 °F (Feb 23, 7:00 AM)30% (Mar 2, 4:00 PM)29.77 "Hg (Mar 2, 3:00 PM)
Average80 °F62%29.90 "Hg
* Reported Feb 16 1:00 PM — Mar 3 12:00 Noon, Olongapo, Weather by CustomWeather, © 2015

Note: Actual official high and low records may vary slightly from our data, if they occured in-between our weather recording intervals... More about our weather records

Advertising

Olongapo weather history for previous 24 hours

 ConditionsComfort  
Time TempWeatherWind HumidityBarometerVisibility
12:00 PM
Tue, Mar 3
90 °FPassing clouds.15 mph36%29.86 "HgN/A
11:00 AM88 °FPassing clouds.15 mph40%29.89 "HgN/A
10:00 AM84 °FPassing clouds.14 mph48%29.92 "HgN/A
9:00 AM81 °FPassing clouds.14 mph54%29.92 "HgN/A
8:00 AM77 °FPassing clouds.12 mph61%29.89 "HgN/A
7:00 AM73 °FPassing clouds.8 mph69%29.89 "HgN/A
6:00 AM72 °FPassing clouds.6 mph73%29.86 "HgN/A
5:00 AM70 °FPassing clouds.10 mph78%29.83 "HgN/A
2:00 AM72 °FPassing clouds.3 mph73%29.86 "HgN/A
1:00 AM73 °FPassing clouds.5 mph69%29.86 "HgN/A
12:00 AM73 °FPassing clouds.9 mph65%29.89 "HgN/A
11:00 PM
Mon, Mar 2
72 °FPassing clouds.6 mph69%29.89 "HgN/A
10:00 PM75 °FPassing clouds.2 mph61%29.89 "HgN/A
9:00 PM77 °FPassing clouds.No wind61%29.86 "HgN/A
8:00 PM79 °FPassing clouds.No wind58%29.86 "HgN/A
7:00 PM81 °FPassing clouds.5 mph62%29.80 "HgN/A
6:00 PM82 °FWarm.7 mph58%29.80 "HgN/A
5:00 PM86 °FScattered clouds.6 mph49%29.80 "HgN/A
4:00 PM91 °FScattered clouds.12 mph30%29.77 "HgN/A
3:00 PM91 °FScattered clouds.13 mph32%29.77 "HgN/A
2:00 PM91 °FScattered clouds.13 mph36%29.80 "HgN/A
1:00 PM90 °FScattered clouds.17 mph38%29.83 "HgN/A
Weather by CustomWeather, © 2015

See weather overviewHow to use our weather pages